Location: Kra?nica
(53.4833°N, 14.6167°E)
Time: 21:50:50
(UTC+00:00)

CZ-2D R/B - Pass Details

Date: 23 May 2024
Orbit: 790 x 843 km, 98.8° (Epoch: 21 June)

Event Time Altitude Azimuth Distance (km) Brightness Sun altitude
Rises 00:08:55 0° 22° (NNE) 3,416 7.3 -14.3°
Reaches altitude 10° 00:11:38 10° 34° (NNE) 2,474 5.9 -14.2°
Maximum altitude 00:16:21 28° 93° (E) 1,517 3.7 -14.0°
Drops below altitude 10° 00:20:59 10° 152° (SSE) 2,442 4.2 -13.8°
Enters shadow 00:21:27 - 154° (SSE) 2,596 4.3 -13.7°
